[[{"header":{"parameterUnit":"m.s-1","parameterCategory":1,"la1":30.2991,"la2":30.254,"lo1":-89.0895,"lo2":-89.0444,"dy":0.0017,"dx":0.0017,"nx":28,"ny":28,"refTime":"2024-04-20T09:00:00:Z","depth":0,"parameterNumber":2,"parameterNumberName":"U-component_of_WINDS"},"data":[0,0,0,0,0,0,0,0,0,0,0,0,0,0,0,0,0,0,0,0,0,0,0,0,0,0,0,0,0,0,0,0,0,0,0,0,0,0,0,0,0,0,0,0,0,0,0,0,0,0,0,0,0,0,0,0,0,0,-0.2476,-0.2477,0,-0.2505,-0.2506,-0.2506,-0.2541,-0.2541,-0.2542,-0.2542,-0.257,-0.257,-0.257,0,0,0,0,0,0,0,0,0,0,0,0,0,-0.2449,-0.2449,-0.2476,-0.2477,-0.2477,-0.2505,-0.2506,-0.2506,-0.2541,-0.2541,-0.2542,-0.2543,-0.257,-0.257,-0.257,0,0,0,0,0,0,0,0,0,0,0,0,0,-0.2468,-0.2449,-0.2476,-0.2498,-0.25,-0.2505,-0.2506,-0.2506,-0.2541,-0.2541,-0.2542,-0.2543,-0.257,-0.257,-0.257,-0.2556,0,0,-0.2571,-0.2571,0,0,0,0,0,0,0,0,-0.2466,-0.2469,-0.2494,-0.2496,-0.2499,-0.252,-0.2506,-0.2523,-0.254,-0.2525,-0.2542,-0.2543,-0.2552,-0.2554,-0.2558,-0.2557,-0.2558,-0.2571,-0.2571,-0.2572,-0.2572,0,0,0,0,0,0,0,-0.2465,-0.2467,-0.2488,-0.2495,-0.2497,-0.2505,-0.2509,-0.2509,-0.2534,-0.2527,-0.2529,-0.2532,-0.2554,-0.2557,-0.2559,-0.2558,-0.2571,-0.2571,-0.2572,-0.2572,-0.2546,-0.2545,0,0,0,0,0,0,-0.2461,-0.2466,-0.2487,-0.2489,-0.2485,-0.2505,-0.2509,-0.2513,-0.2534,-0.2538,-0.2531,-0.2534,-0.2556,-0.2558,-0.256,-0.2543,-0.2572,-0.2572,-0.2572,-0.2547,-0.2546,-0.2545,0,0,0,0,0,0,-0.246,-0.2462,-0.2486,-0.2478,-0.2482,-0.2505,-0.2508,-0.2513,-0.2516,-0.2538,-0.2542,-0.2531,-0.2557,-0.2559,-0.2556,-0.2545,-0.2572,-0.2572,-0.2548,-0.2546,-0.2545,-0.251,0,0,0,0,0,0,-0.2459,-0.2462,-0.2457,-0.2478,-0.2482,-0.2482,-0.2508,-0.2513,-0.2517,-0.252,-0.2538,-0.2542,-0.2558,-0.2556,-0.2557,-0.2546,-0.2573,-0.2549,-0.2547,-0.2545,-0.2513,-0.2508,-0.2504,0,0,0,0,0,-0.2458,-0.2446,-0.2457,-0.2459,-0.2477,-0.2482,-0.2484,-0.2503,-0.2516,-0.2511,-0.2524,-0.2541,-0.2546,-0.2555,-0.2556,-0.2545,-0.255,-0.2548,-0.2546,-0.2515,-0.2509,-0.2504,0,0,0,0,0,0,-0.2423,-0.2449,-0.2462,-0.2456,-0.2466,-0.2488,-0.2482,-0.2497,-0.2504,-0.2506,-0.253,-0.2533,-0.2527,-0.2536,-0.2546,-0.2532,-0.255,-0.2548,-0.2526,-0.2521,-0.2517,-0.2514,-0.2573,0,0,0,0,0,-0.2415,-0.2418,-0.244,-0.2433,-0.2438,-0.2459,-0.2462,-0.2476,-0.2487,-0.2491,-0.2505,-0.2515,-0.2518,-0.252,-0.2525,-0.2514,-0.2518,-0.2507,-0.2503,-0.2499,-0.2497,-0.2491,-0.2486,-0.2538,-0.2538,-0.2538,0,0,-0.2398,-0.2412,-0.2412,-0.2426,-0.2436,-0.2437,-0.2462,-0.2463,-0.2463,-0.2491,-0.2489,-0.2499,-0.2512,-0.2505,-0.2502,-0.2512,-0.2484,-0.2497,-0.2494,-0.2494,-0.2489,-0.2484,-0.2479,-0.2537,-0.2537,-0.2537,0,0,-0.2367,-0.2379,-0.2374,-0.2383,-0.2397,-0.2411,-0.241,-0.2429,-0.2437,-0.2435,-0.2456,-0.2457,-0.2463,-0.2471,-0.2475,-0.2446,-0.2462,-0.2447,-0.2425,-0.2418,-0.2414,-0.2411,-0.24,-0.2395,-0.2445,-0.2445,-0.2445,0,-0.2343,-0.2347,-0.2369,-0.2368,-0.2373,-0.2399,-0.2393,-0.2401,-0.2416,-0.2418,-0.2429,-0.2436,-0.2447,-0.2441,-0.2434,-0.2437,-0.2436,-0.2445,-0.2413,-0.241,-0.2407,-0.2396,-0.2392,-0.2443,-0.2444,-0.2444,-0.2444,0,-0.2317,-0.2319,-0.2313,-0.2327,-0.2331,-0.2328,-0.2348,-0.235,-0.2363,-0.2376,-0.2373,-0.2386,-0.2394,-0.2394,-0.2407,-0.2389,-0.2395,-0.2409,-0.2428,-0.24,-0.239,-0.2386,-0.2441,-0.2441,-0.2442,-0.2442,0,0,-0.2265,-0.2291,-0.2288,-0.2294,-0.2312,-0.2314,-0.2311,-0.2319,-0.2319,-0.2328,-0.2326,-0.233,-0.2343,-0.2348,-0.2363,-0.2357,-0.2332,-0.2372,-0.2373,-0.2363,-0.2313,-0.2301,-0.2296,-0.2343,-0.2342,-0.2341,-0.2311,0,-0.2236,-0.2234,-0.2253,-0.2245,-0.2247,-0.2271,-0.2268,-0.2278,-0.229,-0.2292,-0.2304,-0.2307,-0.2324,-0.2328,-0.2323,-0.2336,-0.2322,-0.2339,-0.2339,-0.2339,-0.2335,-0.2292,-0.228,-0.2251,-0.2308,-0.2307,-0.2307,0,-0.2203,-0.2211,-0.2203,-0.222,-0.2221,-0.2219,-0.2227,-0.2229,-0.224,-0.2249,-0.2255,-0.2271,-0.2268,-0.2287,-0.2283,-0.2294,-0.2295,-0.2301,-0.2301,-0.2301,-0.2321,-0.229,-0.2242,-0.2237,-0.2301,-0.2302,-0.2302,0,-0.2165,-0.2173,-0.2169,-0.2174,-0.2194,-0.2192,-0.22,-0.2212,-0.2215,-0.2222,-0.2224,-0.223,-0.2233,-0.2237,-0.2254,-0.2266,-0.2248,-0.2268,-0.2254,-0.2253,-0.2249,-0.2248,-0.2199,-0.2251,-0.2251,-0.2251,-0.2251,0,-0.2131,-0.2124,-0.2152,-0.215,-0.2143,-0.2165,-0.2158,-0.2168,-0.2179,-0.2178,-0.2199,-0.2198,-0.2221,-0.2222,-0.2235,-0.2229,-0.2231,-0.2237,-0.224,-0.2235,-0.2234,-0.2235,-0.2237,-0.225,-0.225,-0.225,-0.2251,0,-0.2086,-0.2105,-0.2102,-0.2121,-0.2126,-0.212,-0.2136,-0.2134,-0.2147,-0.2146,-0.2147,-0.2166,-0.2168,-0.2186,-0.2192,-0.2201,-0.2189,-0.2197,-0.2186,-0.2188,-0.2173,-0.2173,-0.2122,-0.2116,-0.2172,-0.2171,-0.2171,0,-0.2063,-0.2059,-0.2078,-0.2079,-0.2086,-0.2088,-0.2091,-0.2112,-0.2115,-0.2127,-0.2123,-0.2127,-0.2131,-0.2133,-0.2147,-0.2152,-0.2159,-0.2141,-0.216,-0.2154,-0.2158,-0.2157,-0.2156,-0.2136,-0.2136,-0.2135,-0.2135,0,-0.2019,-0.2028,-0.2033,-0.204,-0.2043,-0.2049,-0.2057,-0.2057,-0.208,-0.2081,-0.2083,-0.2087,-0.2093,-0.2096,-0.2103,-0.211,-0.2126,-0.2129,-0.2126,-0.2119,-0.2112,-0.2115,-0.2174,-0.213,-0.213,-0.2131,-0.2131,-0.2131,-0.1984,-0.1981,-0.1994,-0.1997,-0.2006,-0.2012,-0.2011,-0.2023,-0.2026,-0.2033,-0.2045,-0.2045,-0.2056,-0.2067,-0.2073,-0.2073,-0.2082,-0.2078,-0.2077,-0.2075,-0.2071,-0.2113,-0.2074,-0.2074,-0.2075,-0.2075,-0.2075,0,-0.1941,-0.195,-0.1953,-0.1963,-0.1966,-0.1981,-0.199,-0.1991,-0.1991,-0.2,-0.2004,-0.2006,-0.2009,-0.2023,-0.2028,-0.2025,-0.2032,-0.2025,-0.2025,-0.2026,-0.2063,-0.2065,-0.2019,-0.2019,-0.2019,-0.2019,-0.2019,-0.2019,-0.1918,-0.1914,-0.1924,-0.1924,-0.1933,-0.1934,-0.1938,-0.1943,-0.195,-0.1952,-0.1955,-0.1964,-0.1975,-0.198,-0.1983,-0.1987,-0.1987,-0.1978,-0.1984,-0.2018,-0.2024,-0.2029,-0.2031,-0.1978,-0.1978,-0.1947,-0.1947,-0.1946]},{"header":{"parameterUnit":"m.s-1","parameterCategory":1,"la1":30.2991,"la2":30.254,"lo1":-89.0895,"lo2":-89.0444,"dy":0.0017,"dx":0.0017,"nx":28,"ny":28,"refTime":"2024-04-20T09:00:00:Z","depth":0,"parameterNumber":3,"parameterNumberName":"V-component_of_WINDS"},"data":[0,0,0,0,0,0,0,0,0,0,0,0,0,0,0,0,0,0,0,0,0,0,0,0,0,0,0,0,0,0,0,0,0,0,0,0,0,0,0,0,0,0,0,0,0,0,0,0,0,0,0,0,0,0,0,0,0,0,0.2727,0.2727,0,0.2704,0.2704,0.2704,0.2634,0.2632,0.263,0.2629,0.2606,0.2607,0.2608,0,0,0,0,0,0,0,0,0,0,0,0,0,0.2713,0.2714,0.2727,0.2727,0.2727,0.2704,0.2704,0.2704,0.2634,0.2632,0.263,0.2628,0.2606,0.2607,0.2608,0,0,0,0,0,0,0,0,0,0,0,0,0,0.2708,0.2714,0.2727,0.2689,0.2686,0.2704,0.2704,0.2704,0.2634,0.2632,0.263,0.2627,0.2606,0.2607,0.2608,0.2662,0,0,0.2612,0.2613,0,0,0,0,0,0,0,0,0.2708,0.2708,0.2695,0.2692,0.2688,0.2669,0.269,0.269,0.2635,0.2654,0.2629,0.2626,0.2629,0.2628,0.2629,0.2661,0.266,0.2612,0.2613,0.2613,0.2614,0,0,0,0,0,0,0,0.2708,0.2709,0.2718,0.2695,0.2691,0.2674,0.2671,0.269,0.2655,0.2652,0.2647,0.2645,0.2627,0.2628,0.2628,0.266,0.2612,0.2613,0.2614,0.2614,0.2736,0.2739,0,0,0,0,0,0,0.2714,0.271,0.2719,0.2718,0.2692,0.2676,0.2672,0.2678,0.2654,0.2649,0.2647,0.2642,0.2627,0.2627,0.2627,0.2689,0.2613,0.2615,0.2615,0.2734,0.2737,0.274,0,0,0,0,0,0,0.2714,0.2716,0.272,0.2712,0.2711,0.2679,0.2685,0.2678,0.268,0.2651,0.2644,0.2655,0.2625,0.2625,0.2654,0.2688,0.2615,0.2616,0.2731,0.2735,0.2738,0.2815,0,0,0,0,0,0,0.2714,0.2716,0.2736,0.2713,0.2712,0.2747,0.2687,0.268,0.2682,0.2675,0.2656,0.2651,0.2624,0.2653,0.2656,0.2688,0.2617,0.2728,0.2733,0.2737,0.2809,0.282,0.283,0,0,0,0,0,0.2714,0.2758,0.2737,0.2739,0.2736,0.2749,0.2749,0.2716,0.2685,0.2705,0.2686,0.2651,0.2684,0.2656,0.2659,0.2692,0.2726,0.2731,0.2737,0.2804,0.2818,0.283,0,0,0,0,0,0,0.2785,0.2754,0.2731,0.2769,0.2762,0.2737,0.2761,0.2732,0.2734,0.2727,0.2687,0.2683,0.2718,0.2708,0.2678,0.2744,0.2699,0.2705,0.2749,0.2762,0.2773,0.2775,0.2618,0,0,0,0,0,0.2806,0.2819,0.2791,0.2828,0.2825,0.2794,0.2799,0.2774,0.2766,0.2763,0.2746,0.274,0.2748,0.2755,0.2761,0.2807,0.2803,0.2832,0.2842,0.2851,0.2857,0.2882,0.2895,0.2758,0.2758,0.2758,0,0,0.2848,0.2832,0.2843,0.2842,0.2833,0.2848,0.2792,0.281,0.2821,0.2765,0.2792,0.278,0.277,0.2808,0.2824,0.28,0.2894,0.2858,0.2866,0.2867,0.2889,0.2902,0.2914,0.2762,0.2761,0.276,0,0,0.2932,0.2921,0.2951,0.2944,0.2933,0.2912,0.292,0.2899,0.2889,0.2915,0.2874,0.2886,0.2902,0.2897,0.2896,0.298,0.2949,0.2984,0.304,0.3064,0.3075,0.3084,0.3115,0.3126,0.299,0.299,0.299,0,0.2986,0.3006,0.297,0.2991,0.2992,0.2943,0.2973,0.2968,0.296,0.2962,0.2936,0.2955,0.2945,0.2981,0.3002,0.3003,0.3011,0.2985,0.3076,0.3085,0.3093,0.3122,0.3134,0.2994,0.2994,0.2993,0.2993,0,0.3073,0.3088,0.3114,0.3107,0.3111,0.3136,0.3105,0.3113,0.3089,0.3071,0.3099,0.3085,0.3088,0.3095,0.3071,0.3129,0.3115,0.3083,0.3037,0.3112,0.3138,0.3149,0.3,0.2999,0.2998,0.2997,0,0,0.3201,0.3175,0.3185,0.3182,0.3166,0.3177,0.3201,0.3204,0.3212,0.3208,0.3228,0.3243,0.3214,0.3213,0.3189,0.321,0.3279,0.3176,0.3175,0.3196,0.3343,0.3367,0.338,0.3258,0.326,0.3261,0.3344,0,0.3281,0.332,0.3289,0.3334,0.3348,0.3302,0.3323,0.3316,0.33,0.331,0.3293,0.3305,0.3265,0.3264,0.3284,0.3267,0.3308,0.326,0.3276,0.3277,0.3281,0.3394,0.3419,0.3498,0.3354,0.3355,0.3357,0,0.338,0.3381,0.3427,0.3409,0.3414,0.3433,0.3434,0.3444,0.3436,0.3423,0.3423,0.3393,0.3416,0.3371,0.3403,0.3371,0.3376,0.3369,0.3371,0.3371,0.3322,0.3398,0.3522,0.3534,0.3372,0.3371,0.337,0,0.3469,0.3482,0.3511,0.351,0.349,0.3505,0.3498,0.3487,0.3491,0.3492,0.3495,0.3499,0.3501,0.3505,0.3477,0.3447,0.3513,0.3465,0.3503,0.3504,0.3519,0.3519,0.3646,0.3522,0.3522,0.3522,0.3522,0,0.3562,0.3592,0.3552,0.357,0.3603,0.3568,0.3601,0.3589,0.358,0.3596,0.3556,0.3572,0.3534,0.3546,0.3524,0.3555,0.3556,0.3547,0.3541,0.355,0.3552,0.3553,0.3547,0.3525,0.3524,0.3524,0.3523,0,0.3667,0.3641,0.3671,0.365,0.3645,0.3671,0.3653,0.367,0.3652,0.3672,0.3675,0.3647,0.3659,0.3632,0.364,0.3626,0.3669,0.3654,0.3672,0.3667,0.3708,0.3705,0.3841,0.3857,0.3722,0.3724,0.3725,0,0.3728,0.3751,0.3733,0.374,0.3735,0.3748,0.3752,0.3719,0.3725,0.3718,0.3736,0.3745,0.375,0.3772,0.3753,0.3759,0.3744,0.3792,0.3745,0.3755,0.3746,0.3745,0.3748,0.3802,0.3803,0.3804,0.3806,0,0.384,0.3826,0.3834,0.3838,0.3844,0.3845,0.3844,0.3852,0.3817,0.3826,0.3838,0.3842,0.3851,0.3861,0.3863,0.3856,0.3826,0.382,0.383,0.384,0.385,0.3846,0.3699,0.3817,0.3816,0.3815,0.3815,0.3814,0.3925,0.3944,0.3934,0.3944,0.394,0.394,0.3955,0.3939,0.3948,0.3953,0.3933,0.395,0.3942,0.3942,0.3938,0.3951,0.393,0.3943,0.3947,0.3951,0.3958,0.3848,0.3951,0.3951,0.3951,0.395,0.395,0,0.4035,0.4027,0.4037,0.4037,0.4045,0.4016,0.4013,0.4022,0.4037,0.4033,0.4039,0.4054,0.4063,0.4045,0.4052,0.4066,0.4053,0.4069,0.4068,0.4067,0.3976,0.3967,0.408,0.408,0.408,0.408,0.408,0.408,0.4094,0.4123,0.4109,0.4136,0.4128,0.4144,0.4145,0.4145,0.4142,0.416,0.4167,0.4156,0.4146,0.4152,0.416,0.4155,0.416,0.4181,0.4171,0.4086,0.4074,0.4061,0.4053,0.4183,0.4183,0.4262,0.4262,0.4263]}]]